www.pogodaiklimat.ru

Погода и климат >> Архив погоды >> Пакистан >> Исламабад Сити


ПОГОДА в Исламабад Сити

  • Прогноз погоды в Исламабад Сити
  • Монитор погоды в Исламабад Сити

АРХИВ ПОГОДЫ в Исламабад Сити

Время (UTC), дата Ветер
(напр.,м/с)
 
Видим.   Явления Облачность Т
(С)
Тd
(С)
f
(%)
Тe
(С)
Тes
(С)
Комфортность P
(гПа)
Po
(гПа)
Тmin
(С)
Tmax
(С)
R
(мм)
R24
(мм)
S
(см)
18 14.05 штиль 0 4000 м мгла ясно +22.5 +16.2 68 +27 +27 душно 1005.7 945.9
21 14.05 штиль 0 4000 м мгла ясно +22.5 +14.4 60 +26 +26 жарко 1005.8 946.6
00 15.05 штиль 0 4000 м мгла ясно +19.0 +15.8 82 +20 +20 1006.9 948.0
03 15.05 штиль 0 4000 м мгла 4/0
[Ac lent Ci ing]
+23.5 +18.2 72 +28 +35 душно 1008.1 948.3 +18.0
06 15.05 штиль 0 4000 м мгла 6/3 1000 м
[Sc diur, vesp Ac As]
+30.0 +16.2 43 +33 +46 душно 1007.5 949.6
09 15.05 ЮЗ 2 4000 м мгла 5/1 1000 м
[Sc diur, vesp Cs]
+32.5 +13.5 32 +34 +48 очень
жарко
1005.8 948.5
12 15.05 ЮЗ 2 4000 м мгла 9/4 1000 м
[Sc diur, vesp Ac As]
+31.5 +15.2 37 +34 +35 душно 1003.9 945.5 +32.8
15 15.05 СЗ 5 4000 м 10/5 1000 м
[Sc Ac lent Ci ing]
+23.0 +16.5 67 +28 +28 душно 1007.2 948.0
18 15.05 штиль 0 4000 м мгла 10/5 1000 м
[Sc Ac trans]
+21.0 +14.5 66 +24 +24 комфорт 1008.7 948.4
21 15.05 СВ 1 4000 м слаб. дождь 10/5 1000 м
[Sc Ac trans]
+18.5 +16.1 86 +20 +20 1007.8 947.7 11
00 16.05 штиль 0 4000 м мгла 10/5 1000 м
[Sc Ac trans]
+18.5 +17.7 95 +19 +19 1007.6 948.7
03 16.05 В 1 4000 м в посл. час дождь {морось} 6/3 1000 м
[Sc Ac trans Ci fib]
+19.5 +18.0 91 +23 +27 комфорт 1009.3 948.6 +17.0 3
06 16.05 В 1 4000 м дым {дождь} 6/3 1000 м
[Sc diur, vesp Ac As]
+26.0 +16.8 57 +30 +41 душно 1010.7 951.9
09 16.05 ЮЗ 1 4000 м мгла 5/3 1000 м
[Sc diur, vesp Ac As]
+28.0 +15.5 47 +31 +42 душно 1009.5 951.1
12 16.05 штиль 0 4000 м мгла 4/1 1000 м
[Sc diur, vesp Ac As]
+27.5 +15.8 49 +31 +34 душно 1007.4 948.4 +28.2
15 16.05 штиль 0 4000 м дым 4/3 1000 м
[Sc Ac As]
+24.5 +18.5 69 +29 +29 душно 1008.2 949.2
18 16.05 штиль 0 4000 м дым 4/3 1000 м
[Sc Ac As]
+21.0 +17.9 82 +25 +25 комфорт 1009.6 949.2
21 16.05 штиль 0 4000 м дым 1/0
[Ac trans]
+19.5 +18.0 91 +22 +22 комфорт 1008.7 948.7
00 17.05 штиль 0 4000 м дым 5/0
[Ac trans Ci fib]
+18.0 +16.4 90 +18 +18 1008.7 947.7
03 17.05 штиль 0 4000 м дым 8/3 1000 м
[Sc Ci fib]
+23.0 +16.8 68 +28 +33 душно 1008.1 948.2 +17.0
06 17.05 штиль 0 4000 м дым 9/4 1000 м
[Sc Ac lent]
+28.0 +17.4 53 +32 +38 душно 1007.6 949.3
09 17.05 ЮЗ 2 4000 м дым 9/4 1000 м
[Sc Ac lent]
+31.0 +16.5 42 +34 +38 душно 1004.4 946.9
12 17.05 СВ 3 4000 м мгла 9/4 1000 м
[Sc Ac As]
+27.0 +16.1 51 +30 +31 душно 1004.8 945.9 +31.5
15 17.05 ЮЗ 2 4000 м гроза, ливневой дождь 10/5 1000 м
[Cb cap As op]
+21.0 +17.9 82 +26 +26 душно 1009.3 949.6 0.0
18 17.05 штиль 0 10 км 10/5 1000 м
[Sc As op]
+19.0 +18.2 95 +21 +21 комфорт 1009.9 949.0 2
21 17.05 штиль 0 4000 м 10/5 1000 м
[Sc Ac trans]
+18.0 +17.2 95 +18 +18 1008.8 948.5
00 18.05 штиль 0 10 км 10/4 1000 м
[Sc Ac As]
+18.0 +17.2 95 +18 +18 1008.5 947.5
03 18.05 штиль 0 10 км ясно +22.0 +17.4 75 +26 +36 душно 1009.0 948.8 +16.5
06 18.05 ЮЗ 1 4000 м мгла 1/1 1000 м
[Cu med, cong]
+28.5 +14.2 42 +31 +51 опасность
солнечного
удара
1009.2 950.9
09 18.05 ЮЗ 1 4000 м мгла 3/3 1000 м
[Cu med, cong]
+31.5 +13.1 33 +33 +47 жарко 1007.1 949.5
12 18.05 ЮЗ 2 4000 м мгла 5/3 1000 м
[Sc diur, vesp Ac trans]
+31.5 +15.2 37 +34 +36 душно 1005.9 947.6 +32.0
18 18.05 штиль 0 10 км 3/0
[Ac trans]
+21.5 +16.8 75 +25 +25 комфорт 1007.6 947.4
21 18.05 штиль 0 10 км ясно +19.5 +17.4 88 +22 +22 комфорт 1007.4 947.5
00 19.05 штиль 0 10 км ясно +17.5 +15.9 90 +17 +17 1007.2 946.3
03 19.05 штиль 0 10 км ясно +25.0 +17.3 62 +29 +38 душно 1006.7 947.2 +16.0
06 19.05 штиль 0 10 км ясно +31.0 +15.6 39 +33 +60 опасность
солнечного
удара
1006.6 948.9
09 19.05 ЮВ 1 4000 м мгла 1/1 1000 м
[Cu med, cong]
+34.0 +14.6 31 +35 +54 опасность
солнечного
удара
1005.7 948.6
12 19.05 ЮЗ 1 4000 м мгла 6/4 1000 м
[Sc Ac As]
+33.0 +15.3 35 +35 +37 душно 1003.5 945.7 +35.0
15 19.05 ЮЗ 1 4000 м гроза, ливневой дождь 10/3 600 м
[Cb cap Ac As]
+19.5 +16.3 82 +23 +23 комфорт 1014.7 954.4 4
18 19.05 СВ 2 10 км 8/4
[Sc Ac As]
+23.0 +12.1 50 +26 +26 жарко 1011.7 951.5 1
21 19.05 штиль 0 10 км ясно +19.5 +16.3 82 +21 +21 комфорт 1012.2 952.0
00 20.05 штиль 0 10 км ясно +16.5 +14.9 90 +16 +16 1011.1 949.6
03 20.05 штиль 0 10 км ясно +24.0 +16.2 62 +27 +37 жарко 1010.4 950.5 +15.0
06 20.05 ЮЗ 1 10 км ясно +30.0 +14.2 38 +32 +55 опасность
солнечного
удара
1009.8 951.8
09 20.05 штиль 0 50 км ?/? +33.0 +13.1 30 +34 +34 очень
жарко
1008.5 951.1
12 20.05 ЮЗ 2 4000 м мгла 3/3 1000 м
[Sc diur, vesp]
+33.0 +13.1 30 +34 +37 очень
жарко
1007.2 949.1 +33.7
00 21.05 штиль 0 10 км ясно +16.0 +14.3 90 +16 +16 1009.3 948.0
09 21.05 ЮВ 1 10 км ясно +36.0 +8.1 18 +34 +54 опасность
солнечного
удара
1005.4 948.7
12 21.05 ЮЗ 2 4000 м дым 1/0 1000 м
[As op]
+36.0 +9.5 20 +35 +38 очень
жарко
1003.6 945.5 +36.7

 

Местоположение метеостанции Исламабад Сити (Пакистан): широта 33.72 долгота 73.10 высота над уровнем моря 525 м.

В архиве по умолчанию представлена погода в Исламабад Сити за последнюю неделю. Архивные данные за месяц целиком и за предыдущие месяцы, начиная с января 2011 года, Вы можете получить, выбрав интересующий диапазон дат из раскрывающегося списка и нажав кнопку "Ввод!".


*Определитесь, кто Вы:
робот инопланетянин человек

Внимание! Время в таблицах - всемирное. Для получения местного времени необходимо прибавить поправку, которая равна 5 ч.

Смотрите также архив погоды в соседних городах и на ближайших метеорологических станциях:

Погода в Исламабаде (Пакистан) (11 км)
Погода в Мерри (Пакистан) (34 км)
Погода в Какуле (Пакистан) (53 км)
Погода в Равалакоте (Пакистан) (66 км)
Погода в Балакоре (Пакистан) (77 км)
Погода в Мангле (Пакистан) (87 км)
Погода в Чаквале (Пакистан) (92 км)
Погода в Джеламе (Пакистан) (105 км)
Погода в Рисалпуре (Пакистан) (112 км)
Погода в Черате (Пакистан) (113 км)

Пояснения к столбцам:

Ветер - указаны скорость ветра в м/с - средняя за 10 мин, порывы в срок и между сроками (в фигурных скобках) и направление, откуда дует ветер: С - северный, СВ - северо-восточный, В - восточный, ЮВ - юго-восточный, Ю - южный, ЮЗ - юго-западный, З - западный, СЗ - северо-западный.
Видимость - горизонтальная дальность видимости в метрах или километрах. При видимости от 1 до 10 км при отсутствии осадков обычно наблюдается дымка, при ухудшении видимости до 1 км и менее - туман. В сухую погоду видимость может ухудшаться дымом, пылью или мглою.
Явления - указаны атмосферные явления, наблюдавшиеся в срок или в последний час перед сроком; фигурными скобками обозначены явления, наблюдавшиеся между сроками (за 1-3 часа до срока); квадратными скобками обозначены град или гололедные отложения с указанием их диаметра в мм.
Облачность - указаны через наклонную черту общая и нижняя облачность в баллах и высота нижней границы облаков в метрах; квадратными скобками обозначены формы облаков: Ci - перистые, Cs - перисто-слоистые, Cc - перисто-кучевые, Ac - высококучевые, As - высокослоистые, Sc - слоисто-кучевые, Ns - слоисто-дождевые, Cu - кучевые, Cb - кучево-дождевые. Подробнее классификацию облаков см. в Атласе облаков (PDF).
T - Температура воздуха - температура, измеренная на высоте 2 м над землей.
Td - Температура точки росы - температура, при понижении до которой содержащийся в воздухе водяной пар достигнет насыщения.
f - Относительная влажность воздуха - влажноcть воздуха, измеренная на высоте 2 м над землей.
Te - Эффективная температура - температура, которую ощущает одетый по сезону человек в тени. Характеристика душности погоды. При расчете учитывается влияние влажности воздуха и скорости ветра на теплоощущения человека.
Tes - Эффективная температура на солнце - температура, которую ощущает человек, с поправкой на солнечный нагрев. Характеристика знойности погоды. Зависит от высоты солнца над горизонтом, облачности и скорости ветра. Ночью, в пасмурную погоду, а также при ветре 12 м/с и более поправка равна нулю.
P - Атмосферное давление - приведенное к уровню моря атмосферное давление.
Po - Атмосферное давление - измеренное на уровне метеостанции атмосферное давление.
Tmin - Минимальная температура - минимум температуры воздуха на высоте 2 м над землей.
Tmax - Максимальная температура - максимум температуры воздуха на высоте 2 м над землей.
R - Количество осадков - Количество выпавших осадков за период времени, мм. При наведении курсора мыши на число - период времени, за который выпало указанное количество осадков.
R24 - Количество осадков - Количество выпавших осадков за 24 часа, мм.
S - Снежный покров - Высота снежного покрова, см. При наведении курсора мыши на число - состояние снежного покрова и степень покрытия местности в баллах.